BEIDOU IGSO-6

Last updated on Jan. 28, 2020, 4:41 a.m. UTC

1 41434U 16021A   20027.49136606 -.00000137  00000-0  00000+0 0  9993
2 41434  56.8367  62.0330 0040801 209.8275 126.4479  1.00287926 14095
UTC
Height (km)
Latitude
Longitude
Inclination
Orbital Period
UTC large
Height (km)
Speed (km/s)
/
Latitude / Longitude
Inclination (degrees)
Orbital Period (minutes)
Azimuth
Elevation
Range (km)
Doppler Factor
iOS Compass Heading
iOS Angle

Next 30 passes for location: Hong Kong

Rise time Rise Azimuth (degrees) Set time Set Azimuth (degrees) Duration Max altitude (degrees)

No matching passes for this satellites